Location: Newark
(52.0742°N, 23.6111°E)
Time: 15:00:07
(UTC+00:00)

N. Korean satellite - Visible Passes

Search period start: 18 September 2020 00:00
Search period end: 28 September 2020 00:00
Orbit: 455 x 503 km, 97.2° (Epoch: 17 September)

Date Brightness Start Highest point End Pass type
(mag) Time Alt. Az. Time Alt. Az. Time Alt. Az.
19 Sep 9.7 03:14:39 10° NE 03:17:31 21° E 03:20:20 10° SE visible
20 Sep 10.2 02:49:53 10° ENE 02:51:15 12° E 02:52:35 10° ESE visible
22 Sep 9.0 03:29:40 10° NNE 03:32:57 29° E 03:36:11 10° SSE visible
23 Sep 9.8 03:04:20 10° NE 03:06:44 16° E 03:09:06 10° SE visible
26 Sep 9.4 03:19:11 10° NE 03:22:10 23° E 03:25:05 10° SSE visible
27 Sep 10.0 02:54:11 10° ENE 02:55:54 13° E 02:57:35 10° ESE visible
